Location: Unspecified
(0.0000°N, 0.0000°E)
Time: 15:59:58
(UTC+02:00)

ARIANE DEB (SPELDA) - Visible Passes

Search period start: 20 September 2014 00:00
Search period end: 30 September 2014 00:00
Orbit: 331 x 33305 km, 3.4° (Epoch: 19 September)

Date Brightness Start Highest point End Pass type
(mag) Time Alt. Az. Time Alt. Az. Time Alt. Az.
21 Sep 4.9 06:20:18 36° W 06:25:02 83° S 15:18:05 10° E visible
22 Sep 5.4 11:59:45 10° W 20:53:55 80° N 21:01:10 22° E visible
23 Sep 5.8 07:10:13 12° W 07:21:00 83° S 16:15:42 10° E visible
24 Sep 4.5 12:59:26 10° W 21:48:37 76° N 21:50:53 55° ENE visible
26 Sep 6.7 03:31:43 13° E 03:31:43 13° E 03:33:12 10° E visible
26 Sep 4.8 14:05:43 10° W 22:40:23 58° WNW 19:01:57 10° W visible
28 Sep 5.7 04:21:06 37° E 04:21:06 37° E 04:36:23 10° E visible
28 Sep 10.0 08:45:04 10° E 11:25:32 22° E 12:45:15 10° E visible
28 Sep 6.1 23:23:26 10° W 23:29:41 23° W 23:29:41 23° W visible
